GPS BIIF-10 (40730 NORAD) Tracking and Keplerian Element Data

This shows tracking and keplerian element data for the satellite.

Feedback or suggestion? Click here.




ElementValue
Catalog40730
NameGPS BIIF-10
Epoch Orbit2762
Epoch Day113.16628517
Epoch Year2019
RAAN12.8066
Inclination55.5936
Eccentricity0.0044698
Argument of Perigee342.268
Mean Anonmoly17.6073
Mean Motion2.00557646
Decay Rate-1.05E-06
L11 40730U 15033A 19113.16628517 -.00000105 00000-0 00000-0 0 9994
L22 40730 55.5936 12.8066 0044698 342.2680 17.6073 2.00557646 27624

Live tracking and technical data element details for GPS BIIF-10 (NORAD 40730). GPS BIIF-10 can be tracked NOW for your location showing map with azimuth and elevation plus other details from your city location.

Track the satellite on the map from your city or location and see movement details for azimuth, elevation, latitude, longitude, range, height, and movement on the map or in text.







IsCatalogInMostPopularTable: catalog: 40730, numindb: 220
Update: records affected: 1



GetName: 40730 GPS BIIF-10

Hit Count: updated at: Wed, 24 Apr 2019 17:46:05 GMT